{"data":{"norad_id":41866,"epoch":"2026-09-20T03:57:02.723040Z","epoch_age_seconds":43420,"freshness":"FRESH","line1":"1 41866U 16071A   26263.16461485 -.00000095  00000+0  00000+0 0  9997","line2":"2 41866   0.5680  84.3084 0001683 128.1591 101.1856  1.00271879 36059","mean_motion":1.00271879,"eccentricity":0.0001683,"inclination_deg":0.568,"raan_deg":84.3084,"arg_perigee_deg":128.1591,"mean_anomaly_deg":101.1856,"bstar":0,"rev_number":3605,"period_min":1436.0955577585,"perigee_km":35779.472289645,"apogee_km":35793.664929553,"semimajor_km":42164.705609599,"source":"CELESTRAK","updated_at":"2026-09-20T09:00:35.248927Z"}}